Theta_e
308 308 308 308 308 309 310 311 312 313 312 306 307 308 309 310 310 316 319 316 318 317 316 317 318 321 322 322 323 323 322 323 324 324 325 326 325 326 327 328 329 330 348 341 337
309 308 308 308 308 309 309 310 311 312 313 313 306 307 308 309 314 317 317 320 319 317 314 318 320 320 321 321 322 323 323 322 324 325 325 325 325 325 325 325 327 329 349 341 339
309 308 308 309 311 311 311 311 311 312 312 313 312 306 307 309 321 323 320 320 319 316 314 319 320 321 320 322 321 322 322 323 324 325 324 324 324 325 324 324 325 329 342 348 351
309 308 309 310 311 311 311 312 311 312 312 313 313 306 307 318 326 323 315 317 317 316 315 320 321 321 321 321 322 321 322 323 324 324 324 323 323 323 324 324 326 327 331 341 348
308 308 309 310 310 310 311 312 312 312 312 313 313 306 312 323 322 320 316 312 312 313 317 322 321 321 321 321 321 322 322 322 323 323 323 323 323 323 323 324 325 325 327 328 329
308 308 310 310 310 311 312 313 312 312 312 312 310 306 316 318 319 323 319 316 316 315 319 321 320 320 320 321 321 322 322 322 322 323 322 322 322 322 322 323 323 324 325 326 328
307 308 310 310 310 310 311 312 313 313 312 308 306 310 319 321 319 320 321 320 319 317 320 318 319 320 320 320 321 321 320 321 321 321 321 322 321 321 322 323 323 324 325 326 328
307 308 311 311 310 311 311 314 312 311 308 307 306 317 321 320 319 318 320 320 318 318 318 319 319 320 321 320 320 320 321 319 321 322 321 321 321 323 324 323 323 324 325 326 327
307 307 311 312 311 311 312 314 315 309 307 307 315 322 326 320 319 318 319 320 320 319 318 320 320 321 320 319 319 320 321 321 322 323 323 322 322 323 324 323 323 324 325 325 327
306 307 310 312 312 311 313 316 317 322 318 318 324 325 324 322 323 320 319 320 319 319 319 319 319 319 319 319 319 320 323 323 323 324 323 322 322 322 324 324 324 325 325 325 333
305 306 308 312 312 313 314 319 322 330 327 323 321 321 321 320 320 321 318 321 321 320 320 320 319 317 318 319 320 322 322 322 324 325 323 323 322 323 323 324 324 324 325 326 337
305 305 307 313 313 314 315 320 319 318 320 322 319 320 319 319 319 321 319 320 321 321 321 321 321 321 320 320 321 322 322 322 323 324 323 322 322 323 323 323 324 324 324 326 334
304 305 306 312 315 316 321 318 318 318 322 322 320 320 320 320 321 321 321 321 320 321 321 322 322 323 324 323 323 322 322 323 322 323 323 322 321 322 322 323 323 325 331 331 332
304 305 306 312 317 320 320 318 318 318 324 322 320 320 320 320 321 320 320 321 321 322 322 322 322 323 323 322 322 322 322 322 322 323 322 323 323 326 323 324 324 328 330 331 333
304 305 306 309 315 321 316 317 317 319 333 321 320 319 320 320 320 321 321 320 321 321 324 324 324 323 323 323 323 322 322 322 322 322 322 322 322 323 325 325 327 327 328 331 334
305 305 310 317 318 320 314 316 320 327 329 321 319 319 319 321 320 320 321 321 321 321 322 322 322 324 324 324 324 323 322 322 323 323 324 323 323 324 325 328 327 329 332 333 335
305 306 311 313 320 315 315 319 326 329 321 320 319 317 318 318 320 320 321 321 322 323 324 324 323 322 324 324 323 322 323 324 325 326 325 324 324 326 330 327 329 333 334 334 334
306 309 314 317 318 314 316 323 330 324 320 318 317 317 318 319 319 320 320 320 321 322 321 322 323 323 323 324 323 323 324 324 327 328 325 327 331 335 336 334 335 335 334 332 332
307 315 319 321 314 315 320 328 326 320 317 316 317 319 320 320 319 319 319 320 322 321 322 324 325 324 323 322 321 321 323 323 327 327 327 328 333 336 336 336 335 333 331 331 332
310 318 320 318 315 317 325 327 321 317 316 316 317 319 319 319 319 319 319 319 320 320 320 321 323 322 323 322 320 320 321 322 326 330 329 328 334 339 332 334 330 326 330 327 325
313 322 318 315 319 323 326 322 319 317 316 316 318 318 318 318 318 318 318 318 319 318 318 319 320 322 323 322 321 322 321 321 322 331 331 329 328 333 332 332 327 326 324 323 324
317 321 317 315 322 321 321 318 311 315 316 316 316 317 318 318 319 319 319 318 315 315 317 318 320 324 324 324 325 325 325 325 327 326 330 332 332 331 330 327 326 324 322 320 318
317 320 319 317 322 321 321 318 316 316 317 316 316 317 317 317 318 318 318 316 315 314 316 316 321 324 322 319 323 325 323 324 324 328 329 333 334 326 326 324 323 323 321 320 319
319 321 320 319 319 319 320 319 319 316 315 315 315 316 316 317 318 318 317 316 315 314 314 314 316 319 321 322 322 324 322 319 320 326 323 322 322 326 325 322 320 319 319 318 318
320 320 319 318 320 318 318 319 318 317 316 316 316 316 317 318 318 318 317 317 316 318 315 315 317 317 317 317 319 321 318 316 317 318 318 318 320 321 321 322 321 319 317 316 315
318 316 315 316 318 319 316 319 318 317 315 316 317 317 316 317 317 317 316 316 317 316 317 319 320 318 319 317 316 317 314 314 314 315 316 316 316 319 318 319 316 315 314 314 314
313 314 317 317 318 319 319 320 317 315 316 315 314 315 315 316 315 315 315 314 315 315 316 317 320 321 321 318 318 318 315 315 315 314 314 315 315 315 314 314 314 315 315 314 315
Wind_Speed
24 24 24 24 23 22 20 19 17 16 15 13 13 13 14 16 19 13 14 13 9 23 12 9 12 15 16 15 16 17 11 14 19 18 16 8 6 1 13 6 1 5 14 22 40
26 27 28 27 24 22 21 19 18 16 15 14 13 12 13 16 18 25 22 22 13 12 11 14 13 14 12 14 14 14 12 18 19 17 13 15 4 4 4 9 12 11 21 35 36
28 30 32 28 25 23 22 20 18 16 15 14 13 12 11 12 11 2 5 28 23 14 16 16 15 13 16 15 16 17 16 19 20 11 12 14 16 4 8 11 14 10 21 17 16
30 32 33 28 26 25 23 20 18 16 15 14 12 10 9 5 4 4 2 7 15 14 15 20 15 16 16 16 19 17 19 18 18 20 5 13 15 15 12 10 15 12 12 19 14
32 33 32 29 28 25 23 20 17 16 15 13 10 7 4 8 11 1 2 4 7 11 18 16 16 14 16 17 16 18 17 19 20 11 15 12 14 16 15 10 12 16 6 1 7
34 35 31 31 28 24 21 18 15 13 11 8 6 6 5 12 2 2 5 7 10 15 17 18 12 13 16 17 18 19 16 19 16 19 13 16 16 15 16 14 15 9 14 6 16
36 36 31 30 26 23 18 12 10 9 8 3 8 7 10 17 4 5 6 10 12 16 14 14 16 15 12 15 17 19 21 19 15 17 16 14 19 18 17 15 15 13 12 12 12
36 35 29 27 26 23 15 10 10 8 3 4 9 6 7 7 6 7 10 11 14 14 15 15 13 15 14 17 19 18 17 17 19 20 17 13 19 17 18 16 13 8 11 14 10
36 35 27 26 25 21 13 8 8 8 4 8 6 8 8 2 6 7 11 13 13 10 13 8 9 13 14 16 16 17 15 19 20 20 18 19 18 17 19 16 13 9 13 13 10
35 35 26 24 21 19 19 12 7 2 2 4 12 8 8 4 5 7 10 11 8 10 10 11 9 13 14 14 15 17 18 18 17 17 12 12 16 16 18 10 7 9 12 12 12
35 36 28 21 18 18 22 6 4 6 14 13 4 9 7 4 5 6 7 10 10 8 14 15 13 15 18 20 21 21 23 22 17 13 13 13 14 14 15 10 12 12 11 9 15
35 36 28 20 20 16 18 10 8 7 9 11 4 10 0 4 6 10 9 7 11 14 15 14 17 17 18 20 20 22 22 22 16 19 11 8 13 15 16 13 14 12 13 12 15
35 36 29 20 20 14 7 11 9 7 6 10 1 5 1 6 4 4 12 11 13 16 17 18 19 20 21 19 21 21 16 16 17 19 19 16 14 18 20 17 12 11 10 10 10
36 36 27 22 10 11 8 13 11 5 5 10 8 4 7 4 6 1 5 10 15 20 20 19 20 22 22 15 16 21 15 19 19 18 15 13 14 18 20 17 14 11 9 8 9
35 36 24 9 14 9 13 12 10 4 4 3 5 4 6 5 6 7 3 9 16 18 17 21 21 21 24 23 18 20 17 17 20 16 17 22 13 16 15 18 18 12 9 10 11
35 32 21 4 12 11 17 13 6 6 2 7 2 4 9 6 2 4 12 11 12 17 19 22 24 23 24 23 20 15 19 17 17 14 14 20 19 17 14 15 19 17 13 10 14
35 25 13 9 7 15 15 10 6 7 4 4 3 7 10 13 5 12 8 12 12 14 16 18 22 24 24 16 16 11 9 10 14 14 15 17 18 15 3 5 23 20 15 11 12
36 16 9 9 10 14 11 8 9 3 5 6 6 12 13 6 9 9 8 14 14 12 11 15 19 15 13 17 18 14 13 12 18 14 14 8 8 4 16 17 21 17 12 12 12
33 11 8 11 11 9 7 7 6 9 7 10 13 13 11 4 6 7 16 11 11 9 6 11 16 17 4 4 16 14 16 14 9 15 14 15 7 11 10 12 9 13 12 10 11
23 12 12 4 9 7 6 13 3 6 8 8 11 5 9 12 13 11 10 12 8 9 10 11 18 21 16 12 16 17 16 10 6 5 12 16 9 6 8 16 14 21 6 9 5
6 5 7 9 7 7 9 6 4 8 6 6 11 12 13 13 12 10 12 11 12 10 12 14 14 21 9 10 11 12 15 16 13 7 5 11 4 2 14 11 11 14 14 16 6
8 5 7 7 7 4 4 5 3 5 2 4 5 8 8 9 11 12 13 6 8 10 12 11 9 13 21 12 14 16 12 4 5 11 5 6 5 5 10 12 15 10 1 9 9
6 8 3 7 5 6 5 5 1 5 4 5 7 6 7 9 7 8 7 6 7 8 9 10 5 8 12 15 1 7 11 17 13 7 13 4 1 4 5 11 10 13 15 15 3
5 4 1 1 2 6 9 9 4 7 5 4 9 9 8 10 11 10 11 4 6 5 7 2 8 12 12 6 3 9 16 16 10 11 14 12 10 10 10 10 4 2 3 3 4
4 5 3 6 8 9 9 11 9 8 6 4 5 7 7 9 12 14 14 10 6 7 2 3 13 14 17 19 11 18 12 13 14 13 12 13 6 3 5 8 7 5 3 7 4
6 5 9 11 10 9 5 9 4 9 2 9 7 8 11 9 12 14 16 12 12 11 5 7 11 14 17 18 16 18 16 9 14 15 16 13 12 13 7 10 10 6 6 4 4
14 15 5 8 12 7 3 6 7 7 8 6 7 10 9 10 11 13 12 12 14 14 12 10 7 10 13 15 13 12 10 11 12 12 13 13 8 7 4 3 2 5 8 8 7
Wind_Direction
4 357 350 343 336 331 326 323 317 311 311 307 298 303 306 307 304 294 261 234 252 235 274 243 221 235 247 259 252 250 261 261 260 259 269 260 168 289 271 279 53 270 123 157 158
360 355 349 343 336 329 324 318 316 306 301 304 297 294 306 313 303 272 253 248 259 218 228 223 216 227 239 244 240 235 249 250 269 295 333 324 41 297 248 226 251 239 126 159 198
357 353 349 342 338 332 325 318 314 307 298 295 300 290 302 323 281 280 334 227 237 250 230 229 232 226 239 241 237 232 243 271 285 348 328 306 312 218 260 276 274 258 137 155 168
355 352 348 344 339 332 325 318 312 306 299 292 295 283 296 295 301 64 47 204 219 234 226 247 229 230 238 244 241 251 243 261 279 292 268 274 282 286 281 278 290 303 133 148 156
356 352 349 345 337 331 325 319 315 307 299 292 286 258 294 239 262 167 106 149 187 196 217 236 232 244 244 249 258 250 251 257 258 266 282 265 268 271 269 275 264 282 287 199 232
356 353 351 346 341 335 329 330 325 316 303 289 249 207 244 263 301 137 177 181 199 208 225 242 237 247 260 267 267 285 274 257 264 267 250 262 261 264 262 260 264 252 269 237 248
357 355 352 353 355 353 355 2 351 333 311 248 181 179 261 250 310 293 225 221 215 208 236 242 260 264 274 270 277 267 273 273 249 258 243 257 258 253 258 252 235 223 237 254 254
357 355 352 354 353 354 355 6 4 2 9 145 160 207 262 37 261 272 240 223 224 219 249 262 255 269 279 280 283 273 272 256 256 240 235 235 259 257 229 241 233 210 242 233 234
357 354 350 350 348 342 348 341 11 40 65 148 163 221 267 222 235 244 233 228 216 232 249 277 295 272 254 256 260 260 255 252 249 254 203 207 248 257 266 202 212 216 237 232 188
356 354 347 347 345 333 334 313 293 274 108 214 266 237 252 360 41 307 219 231 212 233 228 230 244 242 239 250 242 251 245 235 254 260 191 224 239 258 280 167 187 230 252 235 112
353 352 345 341 334 323 327 306 260 199 232 275 288 282 286 282 169 233 198 214 214 221 233 230 240 240 236 237 252 268 278 287 293 239 183 217 258 240 251 193 207 211 235 233 110
351 350 344 333 326 310 305 7 6 311 302 280 253 266 12 313 286 212 163 222 216 235 220 246 238 251 256 257 253 254 257 271 280 287 283 230 244 264 265 233 214 219 226 211 120
349 348 342 327 318 295 293 4 338 313 269 205 226 292 332 268 311 282 175 213 249 235 253 252 253 246 235 250 267 253 272 270 267 270 264 248 261 258 252 241 231 194 40 97 94
347 346 341 326 308 325 337 346 341 355 270 149 189 133 204 247 231 151 276 253 255 254 263 253 262 262 270 249 260 268 241 260 263 274 263 207 251 243 236 211 205 148 143 129 117
344 344 333 315 304 322 347 332 339 268 242 93 100 357 281 263 358 210 202 275 265 270 248 259 266 257 263 259 253 259 274 264 264 243 267 271 257 269 236 209 169 174 176 136 121
340 343 327 301 260 273 329 324 285 238 185 138 329 354 304 219 250 292 285 207 271 281 261 271 277 271 269 265 252 256 262 255 262 272 241 248 261 266 243 214 162 160 140 143 119
336 338 307 285 294 330 327 292 246 256 160 92 353 312 307 283 287 288 310 301 275 269 254 262 250 255 255 260 256 239 242 253 249 239 249 245 246 252 26 237 169 142 142 131 133
333 330 283 247 287 322 308 262 261 79 32 32 310 303 285 329 314 342 289 293 283 303 282 299 295 338 1 274 230 226 230 237 253 260 261 282 329 344 52 83 110 118 140 142 143
335 330 260 237 304 303 275 252 352 17 17 338 312 267 284 183 200 304 301 285 336 47 322 314 294 347 241 221 308 272 258 240 272 292 280 270 139 94 69 70 91 116 136 131 105
331 303 263 326 317 265 253 261 24 38 356 325 303 313 316 330 324 319 318 353 340 38 352 313 305 306 287 203 241 284 306 276 148 244 266 272 166 216 325 351 16 9 96 104 124
302 270 83 329 301 255 255 37 356 72 355 335 333 320 315 315 315 311 312 324 32 345 329 310 287 281 287 254 271 240 220 241 262 147 252 278 296 33 169 167 60 31 10 342 26
304 283 41 343 276 228 354 19 14 298 322 294 308 293 303 325 314 303 295 0 41 347 309 338 300 290 288 233 207 299 314 176 291 264 5 308 301 350 103 124 128 157 272 354 352
300 289 71 320 300 347 77 293 278 310 320 321 306 301 321 305 305 311 326 327 23 336 25 353 316 305 297 266 36 325 287 270 290 242 224 233 171 30 179 176 169 165 174 196 169
285 309 95 311 139 345 353 294 288 154 293 289 292 309 285 280 270 260 262 282 151 252 123 0 276 278 284 273 189 277 312 315 261 237 263 257 292 137 228 240 193 318 298 318 25
263 24 27 312 344 334 307 307 290 290 168 276 287 243 272 304 306 297 311 326 263 103 240 235 270 283 287 287 229 234 240 256 279 281 275 280 292 303 248 243 230 182 266 287 302
339 350 348 294 278 302 273 289 312 310 280 288 258 288 303 291 285 301 316 315 313 310 281 321 286 283 288 288 272 287 272 267 275 272 273 280 287 121 243 192 172 218 265 268 330
356 327 280 298 286 262 314 334 323 335 286 284 321 311 300 329 341 317 311 298 289 290 282 268 290 291 283 286 317 275 293 306 280 255 271 261 268 23 21 59 341 7 353 321 355